Regional Weather Roundup
Issued by NWS

Home | Current Version | Previous Version | Graphics & Text | Print | Product List | Glossary On
Versions: 1 2 3 4 5 6 7 8 9 10 11 12 13 14 15 16 17 18 19 20 21 22 23 24 25 26 27
000
ASUS45 KBOU 211607
RWRCO

WEATHER ROUNDUP FOR COLORADO
NATIONAL WEATHER SERVICE DENVER/BOULDER CO
1000 AM MDT SAT OCT 21 2017

NOTE: "FAIR" INDICATES FEW OR NO CLOUDS BELOW 12000 FEET WITH NO
SIGNIFICANT WEATHER AND/OR OBSTRUCTIONS TO VISIBILITY.

COZ001>005-013-030-031-211700-
...NORTHWEST COLORADO...

CITY           SKY/WX    TMP DP  RH WIND       PRES   REMARKS
CRAIG          FAIR      26  21  81 SE5       30.16R WCI  20
HAYDEN         FAIR      33  23  66 N3        30.17R
MEEKER         FAIR      31  26  82 CALM      30.17R
RABBIT EARS PA SNOW      18  14  86 W9G24     30.07R VSB 1/4 WCI   6
STEAMBOAT SPGS CLOUDY    28  23  80 CALM      30.14R
WALDEN         NOT AVBL
$$

COZ006>008-011-211700-
...WEST CENTRAL VALLEYS...

CITY           SKY/WX    TMP DP  RH WIND       PRES   REMARKS
GRAND JUNCTION FAIR      44  19  36 NW5       30.16R
MONTROSE       FAIR      41  14  33 CALM      30.17R
EAGLE          FAIR      36  25  64 SW3       30.17R
RIFLE          FAIR      40  26  57 CALM      30.17R
DELTA          FAIR      47  19  33 NW5       30.13R
NUCLA          FAIR      43  12  28 NW10      30.18R
$$

COZ017>023-064>068-211700-
...SOUTHWEST COLORADO...

CITY           SKY/WX    TMP DP  RH WIND       PRES   REMARKS
DURANGO        FAIR      47  19  33 W10       30.05R
CORTEZ         FAIR      46   9  22 N12G18    30.13R
PAGOSA SPRINGS FAIR      46  14  26 S10G18    30.05R
TELLURIDE      FAIR      32  15  49 W7        30.15R WCI  25
WOLF CREEK PAS FAIR      25   9  50 S14G21    30.16R WCI  13
$$

COZ009-010-012-014-032>034-037-058>063-211700-
...CENTRAL COLORADO...

CITY           SKY/WX    TMP DP  RH WIND       PRES   REMARKS
ASPEN          FAIR      32  25  75 CALM      30.14R
BUENA VISTA    FAIR      39   8  27 W16G29    30.02R
COPPER MTN     CLOUDY    18  12  79 MISG      30.05R
BERTHOUD PASS  CLOUDY     9  -2  61 NW32G44   29.96R WCI -15
COTTONWOOD PAS FAIR      32  12  43 NW12G37   30.02R WCI  23
GUNNISON       FAIR      35  15  44 NW3       30.12R
KREMMLING      FAIR      36  25  64 NW12      30.14R
LEADVILLE      FLURRIES  22  11  62 NW14      30.08R WCI   9
MONARCH PASS   CLOUDY    18  14  86 MISG      30.10F
SALIDA         FAIR      43  15  32 W23G35    30.08R
SUNLIGHT       FAIR      18  14  86 MISG      30.18R
WILKERSON PASS FAIR      23   9  54 NW7       30.07R WCI  15
$$

COZ069>075-211700-
...SAN LUIS VALLEY/SANGRE DE CRISTO MOUNTAINS...

CITY           SKY/WX    TMP DP  RH WIND       PRES   REMARKS
ALAMOSA        FAIR      45  21  38 N10       30.03R
DEL NORTE      FAIR      43  24  47 E6        30.02S
LA VETA PASS   CLOUDY    39  23  52 S14G22    30.17R
SAGUACHE       FAIR      37  18  44 NW15G25   30.06R
$$

COZ035-036-038>040-211700-
...NORTHERN COLORADO FRONT RANGE...

CITY           SKY/WX    TMP DP  RH WIND       PRES   REMARKS
DENVER INTL AP FAIR      48  11  22 W15G23    30.00R
DMNS CITY PARK   N/A     46  11  23 W21G36    30.01R
AURORA         MOSUNNY   47  12  24 NW22G29   30.01R
FRONT RANGE AP MOSUNNY   50  14  23 W16G32    30.00
ERIE MUNI ARPT FAIR      49   8  19 NW18G25   30.06R
BOULDER MUN AP FAIR      46  10  23 W28G39    30.00R
CENTENNIAL     FAIR      46   9  22 NW8G23    30.01R
BROOMFIELD     MOSUNNY   46  10  23 W21       30.02R
FORT COLLINS   FAIR      47  15  27 NW25G35   30.01R
LONGMONT       FAIR      51  11  19 NW16G26   30.03R
$$

COZ041-046-047-076>085-087-088-211700-
...PIKES PEAK/PALMER DIVIDE AND SOUTHERN FOOTHILLS...

CITY           SKY/WX    TMP DP  RH WIND       PRES   REMARKS
COLO. SPRINGS  FAIR      49  18  29 N17       29.98R
A. F. ACADEMY  SUNNY     44  15  30 NE10      29.99R
SCHRIEVER AFB  FAIR      46  15  28 N16G23    29.97R
CHEYENNE MTN   FAIR      42  15  33 N15G24    29.93R
ELLICOTT         N/A    N/A N/A N/A N22       29.96R
FALCON         FAIR      43  15  31 N17G26    30.00R
FORT CARSON    FAIR      50  17  27 N17       29.95R
LIMON          FAIR      45  21  38 N29G37    29.97R
MONUMENT HILL  FAIR      37  19  48 N15G21    30.02R
CANON CITY     FAIR      55  21  26 W20G29    29.93R
WALSENBURG     PTSUNNY   54  34  47 E7        29.97R
TRINIDAD       FAIR      51  32  48 NE14      29.99R
$$

COZ042>045-048>051-090-091-211700-
...NORTHEAST COLORADO...

CITY           SKY/WX    TMP DP  RH WIND       PRES   REMARKS
GREELEY ARPT   FAIR      49  15  25 NW33G39   29.97R
AKRON          FAIR      49  21  33 NW29G38   29.95R
BURLINGTON     CLOUDY    49  27  42 NW24G36   29.92R
WRAY           FAIR      46  36  66 NW13      29.91R
YUMA           NOT AVBL
STERLING       NOT AVBL
HOLYOKE        FAIR      54  32  43 NW18G26   29.91R
FORT MORGAN    CLOUDY    48  15  26 W31G38    29.99R
$$

COZ086-089-092>099-211700-
...SOUTHEAST COLORADO...

CITY           SKY/WX    TMP DP  RH WIND       PRES   REMARKS
PUEBLO         FAIR      53  20  27 N16       29.94R
LA JUNTA       CLOUDY    53  30  41 NE9       29.96R
LAMAR          FAIR      52  28  39 N18       29.92R
SPRINGFIELD      N/A     50  27  40 N26G33    29.93R
$$




USA.gov is the U.S. government's official web portal to all federal, state and local government web resources and services.